QPF
0.07 0.07 0.06 0.05 0.04 0.03 0.03 0.05 0.05 0.03 0.03 0.03 0.03 0.02 0.02 0.02 0.02 0.02 0.02 0.02 0.02 0.02 0.02 0.03 0.03 0.03 0.02 0.01 0.02 0.03 0.03 0.02 0.02 0.03 0.05 0.04 0.04 0.05 0.05 0.03 0.02 0.02 0.02
0.05 0.05 0.05 0.05 0.03 0.03 0.04 0.04 0.05 0.05 0.05 0.04 0.03 0.03 0.02 0.02 0.02 0.02 0.02 0.02 0.02 0.02 0.03 0.03 0.04 0.04 0.04 0.03 0.03 0.04 0.04 0.04 0.05 0.04 0.04 0.04 0.04 0.03 0.04 0.04 0.03 0.03 0.02
0.03 0.03 0.03 0.04 0.04 0.04 0.05 0.04 0.04 0.05 0.05 0.04 0.03 0.02 0.02 0.02 0.02 0.02 0.03 0.03 0.03 0.03 0.03 0.04 0.05 0.05 0.05 0.05 0.04 0.04 0.04 0.05 0.05 0.04 0.04 0.04 0.04 0.04 0.04 0.04 0.04 0.03 0.03
0.03 0.03 0.03 0.04 0.04 0.04 0.04 0.04 0.04 0.04 0.05 0.04 0.04 0.04 0.03 0.02 0.02 0.02 0.02 0.02 0.03 0.03 0.04 0.04 0.05 0.05 0.06 0.07 0.07 0.05 0.04 0.04 0.04 0.04 0.04 0.04 0.04 0.03 0.03 0.03 0.04 0.04 0.04
0.02 0.02 0.03 0.05 0.04 0.03 0.04 0.03 0.03 0.03 0.03 0.03 0.02 0.02 0.02 0.02 0.02 0.02 0.02 0.02 0.02 0.03 0.04 0.03 0.04 0.07 0.09 0.10 0.13 0.13 0.08 0.07 0.06 0.05 0.05 0.04 0.04 0.03 0.01 0.01 0.02 0.02 0.03
0.02 0.03 0.03 0.04 0.04 0.04 0.06 0.06 0.06 0.05 0.04 0.03 0.01 0.02 0.02 0.02 0.02 0.02 0.02 0.02 0.02 0.02 0.02 0.03 0.05 0.05 0.06 0.07 0.10 0.11 0.10 0.09 0.07 0.07 0.06 0.05 0.05 0.04 0.03 0.02 0.02 0.01 0.02
0.05 0.05 0.05 0.06 0.07 0.07 0.07 0.06 0.06 0.05 0.04 0.03 0.03 0.03 0.03 0.02 0.04 0.05 0.04 0.03 0.03 0.03 0.02 0.02 0.04 0.05 0.05 0.03 0.05 0.08 0.11 0.13 0.15 0.11 0.08 0.07 0.07 0.06 0.05 0.04 0.03 0.03 0.03
0.06 0.06 0.06 0.07 0.09 0.10 0.09 0.07 0.06 0.06 0.05 0.05 0.06 0.07 0.08 0.07 0.05 0.04 0.05 0.05 0.05 0.04 0.03 0.03 0.04 0.04 0.04 0.07 0.08 0.08 0.10 0.14 0.18 0.16 0.15 0.12 0.10 0.08 0.07 0.06 0.05 0.04 0.04
0.05 0.07 0.08 0.10 0.12 0.11 0.09 0.08 0.06 0.07 0.06 0.05 0.04 0.08 0.11 0.11 0.08 0.06 0.05 0.05 0.07 0.07 0.06 0.06 0.04 0.04 0.04 0.05 0.05 0.06 0.06 0.07 0.12 0.14 0.15 0.15 0.14 0.11 0.08 0.07 0.07 0.06 0.05
0.09 0.10 0.09 0.09 0.10 0.08 0.08 0.07 0.05 0.07 0.07 0.06 0.05 0.06 0.08 0.10 0.11 0.11 0.09 0.07 0.08 0.09 0.08 0.05 0.05 0.04 0.05 0.05 0.05 0.04 0.05 0.05 0.07 0.11 0.13 0.13 0.12 0.11 0.08 0.10 0.10 0.09 0.07
0.10 0.07 0.05 0.05 0.05 0.06 0.07 0.07 0.08 0.07 0.06 0.06 0.06 0.06 0.05 0.06 0.08 0.09 0.09 0.09 0.08 0.06 0.06 0.05 0.05 0.05 0.05 0.07 0.05 0.04 0.05 0.04 0.05 0.06 0.09 0.10 0.10 0.10 0.09 0.09 0.10 0.09 0.08
0.05 0.04 0.03 0.03 0.05 0.05 0.06 0.07 0.08 0.07 0.07 0.07 0.07 0.06 0.06 0.06 0.06 0.06 0.07 0.08 0.09 0.07 0.04 0.05 0.05 0.06 0.07 0.07 0.06 0.05 0.04 0.04 0.05 0.06 0.06 0.09 0.09 0.09 0.08 0.07 0.09 0.11 0.11
0.03 0.03 0.03 0.04 0.04 0.03 0.04 0.05 0.06 0.06 0.07 0.07 0.07 0.06 0.05 0.05 0.06 0.05 0.08 0.09 0.09 0.07 0.05 0.05 0.05 0.06 0.07 0.06 0.06 0.06 0.04 0.03 0.04 0.04 0.04 0.04 0.06 0.07 0.07 0.08 0.09 0.11 0.12
0.02 0.02 0.03 0.03 0.03 0.04 0.04 0.06 0.07 0.07 0.07 0.08 0.06 0.06 0.06 0.06 0.07 0.06 0.07 0.09 0.09 0.09 0.07 0.06 0.05 0.04 0.05 0.07 0.08 0.08 0.08 0.06 0.05 0.04 0.04 0.04 0.04 0.05 0.07 0.07 0.08 0.09 0.10
0.03 0.02 0.02 0.03 0.04 0.05 0.06 0.07 0.08 0.10 0.11 0.11 0.11 0.09 0.07 0.06 0.07 0.06 0.05 0.07 0.09 0.09 0.07 0.07 0.05 0.04 0.03 0.03 0.03 0.02 0.02 0.02 0.02 0.03 0.04 0.05 0.05 0.04 0.05 0.06 0.08 0.10 0.11
0.03 0.03 0.04 0.05 0.05 0.05 0.06 0.08 0.08 0.09 0.09 0.10 0.09 0.06 0.05 0.04 0.06 0.07 0.06 0.07 0.08 0.09 0.08 0.07 0.05 0.03 0.03 0.02 0.02 0.02 0.02 0.02 0.02 0.01 0.02 0.03 0.04 0.03 0.03 0.04 0.05 0.07 0.10
0.05 0.05 0.06 0.05 0.04 0.04 0.05 0.06 0.07 0.07 0.08 0.08 0.06 0.05 0.05 0.06 0.07 0.07 0.07 0.07 0.07 0.07 0.07 0.07 0.04 0.02 0.02 0.02 0.02 0.03 0.02 0.02 0.02 0.02 0.03 0.04 0.06 0.06 0.06 0.05 0.06 0.07 0.08
0.04 0.03 0.02 0.02 0.03 0.04 0.04 0.06 0.08 0.11 0.10 0.08 0.07 0.06 0.07 0.09 0.09 0.08 0.07 0.06 0.06 0.05 0.05 0.05 0.03 0.02 0.02 0.02 0.03 0.04 0.03 0.02 0.02 0.02 0.04 0.06 0.10 0.12 0.12 0.10 0.08 0.07 0.06
0.01 0.02 0.02 0.02 0.03 0.05 0.06 0.07 0.11 0.12 0.10 0.09 0.07 0.06 0.07 0.08 0.07 0.07 0.06 0.06 0.05 0.04 0.02 0.03 0.02 0.02 0.02 0.02 0.03 0.03 0.03 0.04 0.03 0.04 0.05 0.07 0.11 0.13 0.12 0.10 0.09 0.08 0.06
0.01 0.01 0.02 0.03 0.04 0.05 0.05 0.07 0.08 0.06 0.05 0.05 0.04 0.05 0.06 0.08 0.07 0.07 0.06 0.06 0.05 0.04 0.03 0.03 0.02 0.02 0.03 0.04 0.04 0.04 0.04 0.04 0.03 0.03 0.03 0.04 0.05 0.05 0.05 0.05 0.05 0.04 0.03
0.03 0.04 0.06 0.07 0.06 0.06 0.06 0.07 0.04 0.03 0.03 0.03 0.04 0.05 0.05 0.04 0.04 0.05 0.05 0.06 0.07 0.08 0.07 0.05 0.04 0.04 0.06 0.07 0.06 0.05 0.05 0.04 0.03 0.02 0.02 0.02 0.03 0.03 0.04 0.05 0.05 0.04 0.03
0.08 0.07 0.06 0.05 0.05 0.05 0.05 0.04 0.04 0.03 0.03 0.03 0.04 0.03 0.03 0.03 0.04 0.04 0.04 0.05 0.05 0.07 0.06 0.06 0.07 0.07 0.07 0.06 0.05 0.04 0.03 0.02 0.01 0.01 0.01 0.01 0.02 0.03 0.04 0.04 0.05 0.04 0.04
0.06 0.06 0.06 0.04 0.04 0.03 0.03 0.02 0.03 0.03 0.04 0.05 0.05 0.04 0.03 0.02 0.03 0.04 0.05 0.05 0.03 0.03 0.04 0.05 0.05 0.05 0.05 0.03 0.03 0.02 0.02 0.01 0.01 0.01 0.01 0.02 0.02 0.02 0.02 0.03 0.03 0.03 0.03
0.06 0.07 0.06 0.05 0.04 0.04 0.03 0.03 0.03 0.02 0.02 0.03 0.03 0.03 0.04 0.05 0.04 0.04 0.04 0.03 0.02 0.02 0.03 0.03 0.02 0.02 0.02 0.03 0.03 0.03 0.02 0.02 0.01 0.01 0.01 0.02 0.02 0.02 0.02 0.03 0.03 0.03 0.03
0.06 0.05 0.05 0.04 0.04 0.05 0.05 0.04 0.04 0.03 0.03 0.03 0.02 0.03 0.05 0.05 0.04 0.03 0.03 0.02 0.02 0.01 0.02 0.02 0.01 0.01 0.01 0.02 0.02 0.01 0.01 0.01 0.01 0.01 0.01 0.02 0.01 0.01 0.01 0.01 0.02 0.02 0.03
0.04 0.03 0.03 0.03 0.03 0.03 0.04 0.04 0.05 0.04 0.04 0.04 0.05 0.05 0.05 0.04 0.04 0.04 0.04 0.04 0.03 0.02 0.01 0.01 0.00 0.00 0.01 0.01 0.02 0.01 0.01 0.01 0.01 0.01 0.01 0.01 0.01 0.01 0.01 0.01 0.01 0.02 0.02
MSLP
1016.42 1016.74 1016.97 1017.11 1017.21 1017.30 1017.41 1017.55 1017.72 1017.89 1018.04 1018.15 1018.22 1018.28 1018.35 1018.48 1018.70 1019.05 1019.50 1020.02 1020.56 1021.05 1021.46 1021.74 1021.89 1021.94 1021.92 1021.89 1021.89 1021.96 1022.09 1022.27 1022.49 1022.72 1022.92 1023.09 1023.22 1023.33 1023.42 1023.50 1023.60 1023.70 1023.80
1016.65 1016.96 1017.18 1017.31 1017.39 1017.48 1017.59 1017.73 1017.92 1018.11 1018.29 1018.43 1018.52 1018.58 1018.63 1018.73 1018.90 1019.18 1019.56 1020.02 1020.51 1020.98 1021.38 1021.69 1021.88 1021.98 1022.01 1022.03 1022.06 1022.14 1022.27 1022.46 1022.67 1022.88 1023.08 1023.25 1023.39 1023.50 1023.60 1023.69 1023.78 1023.87 1023.96
1016.80 1017.10 1017.31 1017.45 1017.55 1017.65 1017.78 1017.95 1018.16 1018.39 1018.59 1018.75 1018.85 1018.91 1018.94 1018.98 1019.09 1019.28 1019.57 1019.93 1020.35 1020.78 1021.17 1021.49 1021.72 1021.88 1021.99 1022.07 1022.16 1022.27 1022.42 1022.60 1022.80 1022.99 1023.17 1023.32 1023.45 1023.55 1023.65 1023.74 1023.84 1023.94 1024.03
1016.87 1017.16 1017.38 1017.53 1017.66 1017.79 1017.95 1018.16 1018.40 1018.66 1018.88 1019.06 1019.16 1019.21 1019.21 1019.21 1019.24 1019.34 1019.52 1019.79 1020.11 1020.47 1020.82 1021.14 1021.41 1021.63 1021.81 1021.96 1022.11 1022.27 1022.45 1022.63 1022.82 1022.98 1023.13 1023.25 1023.35 1023.44 1023.54 1023.64 1023.75 1023.87 1023.98
1016.87 1017.15 1017.37 1017.54 1017.70 1017.87 1018.08 1018.32 1018.58 1018.85 1019.10 1019.28 1019.39 1019.43 1019.42 1019.38 1019.35 1019.36 1019.45 1019.60 1019.83 1020.10 1020.39 1020.68 1020.96 1021.21 1021.45 1021.67 1021.89 1022.10 1022.31 1022.51 1022.68 1022.83 1022.94 1023.03 1023.10 1023.18 1023.27 1023.38 1023.51 1023.67 1023.82
1016.82 1017.08 1017.30 1017.50 1017.69 1017.89 1018.12 1018.38 1018.66 1018.94 1019.19 1019.38 1019.51 1019.55 1019.53 1019.48 1019.41 1019.37 1019.37 1019.42 1019.54 1019.70 1019.91 1020.14 1020.39 1020.66 1020.92 1021.20 1021.47 1021.74 1021.99 1022.21 1022.39 1022.52 1022.62 1022.68 1022.73 1022.80 1022.88 1023.01 1023.17 1023.36 1023.57
1016.76 1016.99 1017.20 1017.41 1017.62 1017.85 1018.09 1018.36 1018.64 1018.92 1019.16 1019.36 1019.50 1019.56 1019.57 1019.52 1019.45 1019.37 1019.31 1019.27 1019.28 1019.33 1019.43 1019.58 1019.77 1020.00 1020.27 1020.57 1020.89 1021.20 1021.50 1021.76 1021.96 1022.10 1022.20 1022.26 1022.30 1022.36 1022.45 1022.59 1022.78 1023.01 1023.25
1016.71 1016.90 1017.10 1017.31 1017.53 1017.77 1018.02 1018.28 1018.54 1018.80 1019.03 1019.23 1019.39 1019.49 1019.53 1019.52 1019.47 1019.38 1019.28 1019.18 1019.08 1019.02 1019.00 1019.03 1019.13 1019.29 1019.54 1019.84 1020.18 1020.53 1020.88 1021.18 1021.43 1021.61 1021.73 1021.80 1021.86 1021.93 1022.03 1022.18 1022.39 1022.63 1022.89
1016.67 1016.83 1017.01 1017.22 1017.44 1017.67 1017.91 1018.15 1018.39 1018.62 1018.84 1019.04 1019.21 1019.35 1019.44 1019.48 1019.47 1019.40 1019.28 1019.12 1018.94 1018.76 1018.61 1018.52 1018.50 1018.59 1018.77 1019.04 1019.39 1019.77 1020.16 1020.52 1020.83 1021.07 1021.24 1021.35 1021.44 1021.54 1021.65 1021.81 1022.01 1022.25 1022.52
1016.63 1016.75 1016.92 1017.12 1017.34 1017.57 1017.79 1018.01 1018.22 1018.42 1018.61 1018.80 1018.98 1019.15 1019.29 1019.39 1019.42 1019.38 1019.26 1019.06 1018.81 1018.54 1018.27 1018.05 1017.92 1017.90 1018.01 1018.24 1018.57 1018.96 1019.39 1019.80 1020.17 1020.47 1020.71 1020.89 1021.03 1021.15 1021.29 1021.45 1021.65 1021.87 1022.10
1016.54 1016.65 1016.81 1017.01 1017.23 1017.45 1017.66 1017.85 1018.02 1018.19 1018.35 1018.53 1018.71 1018.90 1019.07 1019.21 1019.29 1019.27 1019.16 1018.95 1018.65 1018.30 1017.94 1017.61 1017.37 1017.25 1017.27 1017.44 1017.73 1018.12 1018.56 1019.01 1019.43 1019.80 1020.10 1020.34 1020.54 1020.71 1020.88 1021.05 1021.24 1021.43 1021.63
1016.37 1016.47 1016.63 1016.83 1017.06 1017.28 1017.47 1017.65 1017.79 1017.92 1018.05 1018.20 1018.37 1018.56 1018.75 1018.91 1019.02 1019.03 1018.94 1018.72 1018.40 1018.00 1017.57 1017.16 1016.83 1016.62 1016.57 1016.66 1016.90 1017.25 1017.67 1018.13 1018.58 1018.99 1019.35 1019.65 1019.91 1020.13 1020.34 1020.53 1020.72 1020.90 1021.07
1016.08 1016.18 1016.35 1016.56 1016.79 1017.01 1017.21 1017.36 1017.48 1017.58 1017.68 1017.79 1017.94 1018.11 1018.30 1018.47 1018.59 1018.62 1018.54 1018.34 1018.02 1017.60 1017.15 1016.70 1016.31 1016.03 1015.89 1015.91 1016.07 1016.35 1016.73 1017.15 1017.59 1018.01 1018.40 1018.75 1019.06 1019.34 1019.59 1019.82 1020.03 1020.22 1020.38
1015.65 1015.77 1015.94 1016.17 1016.40 1016.63 1016.82 1016.97 1017.07 1017.14 1017.20 1017.28 1017.40 1017.54 1017.71 1017.87 1018.00 1018.04 1017.99 1017.81 1017.51 1017.12 1016.67 1016.21 1015.80 1015.47 1015.27 1015.20 1015.27 1015.46 1015.75 1016.10 1016.48 1016.87 1017.25 1017.62 1017.97 1018.29 1018.60 1018.88 1019.14 1019.37 1019.57
1015.12 1015.24 1015.42 1015.65 1015.90 1016.13 1016.32 1016.45 1016.54 1016.59 1016.63 1016.68 1016.75 1016.87 1017.01 1017.15 1017.27 1017.33 1017.30 1017.16 1016.91 1016.57 1016.16 1015.73 1015.32 1014.97 1014.72 1014.58 1014.55 1014.62 1014.78 1015.02 1015.30 1015.62 1015.96 1016.31 1016.67 1017.03 1017.40 1017.75 1018.08 1018.38 1018.64
1014.50 1014.64 1014.83 1015.05 1015.30 1015.52 1015.71 1015.84 1015.92 1015.95 1015.97 1015.99 1016.04 1016.12 1016.24 1016.36 1016.48 1016.55 1016.55 1016.46 1016.27 1016.00 1015.66 1015.29 1014.91 1014.57 1014.28 1014.07 1013.94 1013.88 1013.91 1013.99 1014.15 1014.35 1014.61 1014.91 1015.26 1015.64 1016.05 1016.46 1016.87 1017.26 1017.62
1013.86 1014.00 1014.19 1014.42 1014.65 1014.87 1015.04 1015.17 1015.24 1015.27 1015.27 1015.28 1015.31 1015.38 1015.47 1015.58 1015.70 1015.78 1015.81 1015.77 1015.66 1015.46 1015.21 1014.91 1014.59 1014.28 1013.98 1013.71 1013.49 1013.31 1013.19 1013.12 1013.12 1013.19 1013.33 1013.55 1013.86 1014.23 1014.65 1015.12 1015.60 1016.07 1016.53
1013.24 1013.39 1013.58 1013.79 1014.01 1014.21 1014.37 1014.49 1014.55 1014.58 1014.59 1014.60 1014.62 1014.68 1014.77 1014.87 1014.99 1015.08 1015.15 1015.16 1015.11 1015.00 1014.83 1014.61 1014.36 1014.08 1013.79 1013.50 1013.20 1012.92 1012.67 1012.45 1012.30 1012.22 1012.24 1012.35 1012.58 1012.91 1013.32 1013.81 1014.33 1014.87 1015.40
1012.66 1012.83 1013.02 1013.22 1013.42 1013.60 1013.74 1013.84 1013.90 1013.93 1013.95 1013.97 1014.00 1014.07 1014.16 1014.27 1014.38 1014.49 1014.58 1014.63 1014.63 1014.59 1014.50 1014.36 1014.18 1013.95 1013.68 1013.38 1013.05 1012.70 1012.34 1012.00 1011.71 1011.49 1011.38 1011.38 1011.50 1011.76 1012.12 1012.58 1013.11 1013.67 1014.24
1012.14 1012.33 1012.52 1012.71 1012.89 1013.05 1013.17 1013.25 1013.31 1013.34 1013.38 1013.41 1013.47 1013.54 1013.64 1013.76 1013.88 1014.00 1014.10 1014.17 1014.21 1014.22 1014.18 1014.11 1013.99 1013.81 1013.58 1013.30 1012.95 1012.56 1012.14 1011.72 1011.32 1010.99 1010.75 1010.63 1010.65 1010.80 1011.09 1011.48 1011.96 1012.49 1013.06
1011.67 1011.89 1012.09 1012.28 1012.44 1012.57 1012.67 1012.74 1012.78 1012.82 1012.87 1012.92 1013.00 1013.10 1013.21 1013.33 1013.45 1013.57 1013.67 1013.75 1013.80 1013.83 1013.83 1013.80 1013.73 1013.60 1013.41 1013.16 1012.83 1012.44 1011.99 1011.52 1011.06 1010.64 1010.30 1010.08 1009.98 1010.02 1010.19 1010.49 1010.89 1011.36 1011.87
1011.25 1011.49 1011.71 1011.90 1012.04 1012.15 1012.23 1012.28 1012.32 1012.37 1012.42 1012.49 1012.59 1012.70 1012.82 1012.95 1013.07 1013.17 1013.26 1013.32 1013.37 1013.40 1013.41 1013.40 1013.36 1013.27 1013.12 1012.90 1012.60 1012.23 1011.79 1011.31 1010.82 1010.35 1009.94 1009.63 1009.43 1009.36 1009.42 1009.60 1009.89 1010.27 1010.70
1010.86 1011.14 1011.38 1011.56 1011.70 1011.80 1011.85 1011.89 1011.92 1011.96 1012.02 1012.10 1012.21 1012.33 1012.46 1012.59 1012.70 1012.79 1012.85 1012.89 1012.91 1012.92 1012.92 1012.90 1012.86 1012.79 1012.67 1012.49 1012.23 1011.89 1011.48 1011.01 1010.52 1010.03 1009.58 1009.20 1008.93 1008.76 1008.72 1008.79 1008.97 1009.24 1009.58
1010.51 1010.83 1011.09 1011.28 1011.42 1011.50 1011.54 1011.57 1011.59 1011.62 1011.68 1011.76 1011.87 1012.00 1012.13 1012.24 1012.34 1012.41 1012.44 1012.45 1012.44 1012.41 1012.38 1012.34 1012.29 1012.21 1012.10 1011.93 1011.70 1011.39 1011.02 1010.58 1010.10 1009.62 1009.16 1008.75 1008.43 1008.20 1008.07 1008.05 1008.14 1008.32 1008.57
1010.22 1010.56 1010.84 1011.05 1011.19 1011.27 1011.31 1011.32 1011.33 1011.36 1011.41 1011.49 1011.59 1011.71 1011.83 1011.94 1012.02 1012.06 1012.07 1012.04 1011.99 1011.92 1011.85 1011.78 1011.69 1011.60 1011.47 1011.30 1011.08 1010.79 1010.44 1010.04 1009.59 1009.13 1008.68 1008.26 1007.92 1007.65 1007.47 1007.40 1007.42 1007.52 1007.71
1009.98 1010.35 1010.65 1010.87 1011.03 1011.11 1011.16 1011.17 1011.18 1011.19 1011.23 1011.30 1011.39 1011.50 1011.60 1011.69 1011.74 1011.76 1011.74 1011.69 1011.60 1011.50 1011.39 1011.27 1011.15 1011.01 1010.86 1010.67 1010.44 1010.16 1009.82 1009.43 1009.01 1008.58 1008.15 1007.75 1007.41 1007.13 1006.94 1006.84 1006.82 1006.88 1007.02
Thickness
5756 5754 5752 5752 5754 5754 5754 5752 5752 5751 5751 5752 5752 5753 5753 5752 5751 5750 5746 5742 5740 5739 5738 5737 5735 5734 5733 5732 5731 5729 5728 5727 5726 5725 5723 5722 5721 5719 5718 5717 5716 5715 5713
5755 5754 5754 5753 5754 5754 5753 5753 5753 5752 5753 5752 5752 5752 5752 5753 5751 5750 5748 5744 5741 5740 5738 5737 5736 5735 5733 5732 5730 5729 5728 5727 5726 5724 5723 5722 5721 5719 5718 5717 5716 5715 5714
5756 5755 5756 5755 5755 5754 5753 5753 5753 5753 5753 5753 5753 5753 5753 5752 5751 5750 5749 5748 5745 5741 5739 5738 5736 5735 5734 5732 5730 5729 5728 5727 5726 5724 5723 5722 5721 5720 5718 5717 5716 5715 5714
5756 5756 5757 5757 5755 5755 5755 5754 5754 5754 5753 5753 5753 5754 5753 5751 5751 5750 5749 5748 5747 5746 5741 5738 5737 5735 5734 5733 5731 5729 5728 5727 5726 5724 5723 5722 5720 5719 5718 5717 5716 5715 5714
5758 5758 5758 5756 5756 5757 5756 5756 5755 5754 5753 5752 5753 5753 5754 5753 5751 5750 5749 5748 5746 5745 5744 5739 5737 5736 5734 5733 5731 5730 5728 5727 5725 5724 5723 5722 5720 5719 5718 5717 5716 5715 5714
5759 5759 5759 5757 5758 5758 5756 5754 5752 5752 5753 5753 5755 5753 5753 5753 5752 5750 5749 5748 5746 5745 5744 5742 5739 5737 5734 5733 5731 5730 5728 5727 5725 5724 5723 5722 5721 5719 5718 5717 5715 5714 5714
5760 5760 5761 5758 5758 5757 5755 5755 5753 5752 5752 5753 5751 5750 5751 5752 5750 5750 5749 5748 5747 5745 5743 5742 5741 5740 5737 5733 5731 5730 5728 5727 5726 5724 5723 5722 5720 5719 5718 5716 5715 5714 5713
5761 5761 5760 5760 5759 5757 5755 5754 5752 5752 5752 5753 5749 5746 5742 5743 5746 5749 5748 5746 5745 5744 5744 5742 5740 5738 5737 5735 5732 5729 5728 5726 5725 5724 5723 5721 5720 5719 5718 5716 5715 5714 5713
5762 5761 5760 5760 5759 5758 5756 5754 5753 5751 5749 5751 5752 5747 5741 5737 5740 5743 5743 5743 5742 5742 5742 5740 5738 5736 5734 5733 5731 5728 5726 5725 5724 5723 5722 5721 5720 5718 5717 5716 5714 5713 5712
5762 5761 5761 5760 5759 5759 5757 5756 5755 5752 5749 5749 5750 5749 5746 5744 5737 5733 5737 5739 5739 5738 5738 5738 5736 5733 5732 5730 5728 5725 5724 5722 5722 5721 5720 5719 5718 5717 5716 5714 5713 5712 5710
5763 5762 5761 5760 5759 5759 5757 5755 5753 5752 5751 5749 5748 5747 5745 5743 5741 5734 5729 5732 5734 5736 5735 5733 5732 5731 5729 5727 5725 5723 5721 5719 5718 5717 5716 5715 5715 5714 5713 5712 5710 5709 5708
5764 5762 5761 5760 5758 5758 5756 5754 5752 5751 5750 5748 5748 5747 5744 5742 5740 5737 5732 5729 5729 5730 5731 5730 5729 5727 5725 5723 5721 5718 5716 5715 5713 5712 5711 5710 5710 5709 5709 5708 5706 5705 5704
5764 5761 5762 5759 5758 5756 5755 5754 5752 5751 5750 5747 5746 5746 5745 5744 5743 5740 5735 5731 5729 5728 5727 5727 5726 5724 5722 5719 5716 5713 5711 5710 5708 5707 5706 5705 5705 5704 5703 5702 5702 5700 5699
5765 5762 5759 5758 5757 5756 5755 5753 5752 5750 5749 5747 5746 5743 5742 5742 5741 5739 5736 5731 5725 5724 5723 5722 5723 5721 5718 5715 5711 5709 5707 5705 5704 5702 5701 5700 5699 5698 5697 5697 5696 5695 5694
5765 5762 5759 5757 5756 5755 5753 5751 5750 5748 5747 5745 5744 5742 5740 5740 5738 5738 5736 5732 5725 5720 5719 5719 5718 5717 5714 5711 5707 5705 5703 5699 5698 5697 5696 5695 5693 5692 5691 5690 5689 5688 5688
5761 5760 5757 5755 5753 5752 5751 5749 5747 5745 5743 5741 5740 5737 5736 5737 5735 5733 5732 5731 5728 5723 5718 5717 5715 5713 5709 5708 5702 5701 5698 5695 5692 5691 5689 5688 5687 5686 5684 5683 5682 5681 5680
5759 5757 5754 5752 5751 5750 5748 5746 5744 5741 5739 5738 5737 5735 5733 5732 5731 5731 5729 5727 5725 5722 5716 5713 5711 5707 5703 5700 5698 5696 5694 5691 5688 5684 5682 5681 5679 5678 5677 5675 5674 5673 5672
5758 5755 5752 5750 5748 5747 5745 5743 5740 5738 5736 5734 5733 5731 5729 5729 5726 5726 5724 5722 5720 5719 5715 5707 5704 5701 5697 5695 5692 5690 5689 5687 5683 5677 5675 5673 5672 5670 5668 5667 5665 5664 5662
5756 5753 5749 5747 5745 5743 5741 5739 5737 5735 5733 5731 5729 5726 5724 5723 5720 5720 5718 5718 5717 5715 5711 5706 5701 5696 5693 5690 5687 5684 5682 5678 5678 5673 5669 5666 5663 5661 5659 5657 5655 5654 5652
5752 5749 5746 5743 5741 5739 5737 5734 5732 5730 5728 5726 5724 5722 5719 5717 5715 5713 5713 5711 5710 5707 5705 5702 5696 5691 5687 5684 5681 5678 5676 5673 5671 5668 5664 5660 5656 5653 5651 5648 5646 5643 5642
5749 5745 5742 5739 5737 5735 5732 5730 5727 5726 5723 5720 5717 5715 5713 5709 5706 5705 5705 5703 5701 5699 5697 5694 5690 5685 5680 5676 5674 5673 5670 5667 5664 5661 5658 5656 5652 5649 5645 5640 5637 5634 5632
5744 5741 5737 5734 5732 5729 5725 5722 5721 5721 5718 5714 5711 5710 5707 5703 5699 5696 5693 5691 5690 5689 5688 5686 5683 5677 5673 5670 5667 5666 5663 5660 5656 5653 5650 5648 5646 5643 5639 5634 5629 5625 5622
5738 5734 5730 5727 5724 5720 5717 5715 5714 5714 5712 5709 5706 5703 5702 5699 5694 5692 5687 5684 5681 5678 5676 5676 5674 5670 5667 5664 5660 5658 5654 5651 5648 5646 5642 5640 5638 5634 5631 5625 5620 5616 5613
5732 5728 5724 5721 5717 5713 5710 5709 5707 5708 5706 5703 5700 5696 5693 5689 5687 5684 5682 5679 5676 5672 5670 5668 5665 5662 5660 5657 5654 5651 5647 5643 5640 5637 5633 5631 5630 5627 5624 5619 5612 5608 5605
5725 5721 5718 5715 5712 5708 5703 5702 5701 5702 5699 5696 5693 5689 5686 5681 5676 5675 5673 5670 5667 5664 5659 5656 5654 5651 5649 5646 5644 5643 5639 5636 5633 5631 5626 5623 5622 5619 5617 5613 5607 5601 5597
5718 5715 5711 5708 5705 5702 5697 5695 5693 5697 5693 5690 5686 5682 5676 5672 5668 5665 5665 5662 5658 5655 5653 5650 5646 5643 5641 5638 5635 5632 5632 5629 5627 5623 5619 5615 5614 5611 5609 5606 5602 5596 5591